Location: Dana
(41.8364°N, 106.7042°W)
Time: 13:48:48
(UTC+00:00)

Transit 2A - Pass Details

Date: 16 May 2026
Orbit: 595 x 948 km, 66.7° (Epoch: 8 June)

Event Time Altitude Azimuth Distance (km) Brightness Sun altitude
Rises 23:04:15 0° 228° (SW) 3,589 10.1 34.7°
Reaches altitude 10° 23:06:58 10° 234° (SW) 2,626 9.7 34.2°
Maximum altitude 23:12:50 45° 306° (NW) 1,190 8.2 33.1°
Drops below altitude 10° 23:18:20 10° 19° (NNE) 2,461 8.5 32.1°
Sets 23:20:49 0° 26° (NNE) 3,343 9.1 31.6°
